Location: Unspecified
(0.0000°N, 0.0000°E)
Time: 23:03:45
(UTC+00:00)

N. Korean satellite - Pass Details

Date: 22 October 2020
Orbit: 452 x 505 km, 97.2° (Epoch: 30 October)

Event Time Altitude Azimuth Distance (km) Brightness Sun altitude
Rises 18:00:57 0° 204° (SSW) 2,602 10.8 -4.1°
Reaches altitude 10° 18:04:15 10° 236° (SW) 1,710 10.7 -4.9°
Maximum altitude 18:05:38 12° 258° (WSW) 1,595 11.0 -5.2°
Drops below altitude 10° 18:07:01 10° 281° (W) 1,701 10.7 -5.5°
Sets 18:10:17 0° 314° (NW) 2,570 10.8 -6.3°
